GW4049 Weather Reports


time (UTC)temp
C
wind
direction
speed
KPH
gust
KPH
rain 1hr
cm
rain 24hr
cm
rain mn
cm
humidity
%
barometer
mb
20260906100808 12 201 4.8 4.8 0.00 0.00 0.00 65 1032.8
20260906100306 12 205 4.8 4.8 0.00 0.00 0.00 64 1032.8
20260906095802 12 207 4.8 4.8 0.00 0.00 0.00 64 1032.8
20260906095257 12 211 4.8 4.8 0.00 0.00 0.00 65 1032.8
20260906094750 12 206 4.8 4.8 0.00 0.00 0.00 64 1032.8
20260906094245 12 201 4.8 4.8 0.00 0.00 0.00 64 1032.8
20260906093741 12 204 4.8 4.8 0.00 0.00 0.00 64 1032.9
20260906093237 12 202 4.8 4.8 0.00 0.00 0.00 65 1032.9
20260906092732 12 205 4.8 4.8 0.00 0.00 0.00 64 1033.1
20260906092226 12 201 4.8 4.8 0.00 0.00 0.00 65 1032.8
20260906091722 12 203 4.8 4.8 0.00 0.00 0.00 65 1033.1
20260906091213 12 208 4.8 4.8 0.00 0.00 0.00 64 1033.2
20260906090709 12 207 4.8 4.8 0.00 0.00 0.00 64 1032.9
20260906090208 13 203 4.8 6.4 0.00 0.00 0.00 64 1033.1
20260906085707 12 207 6.4 6.4 0.00 0.00 0.00 64 1032.9
20260906085206 12 202 6.4 6.4 0.00 0.00 0.00 64 1032.7
20260906084701 13 197 4.8 6.4 0.00 0.00 0.00 65 1032.9
20260906084200 13 199 4.8 6.4 0.00 0.00 0.00 62 1032.7
20260906083655 13 206 6.4 6.4 0.00 0.00 0.00 61 1032.9
20260906083151 13 201 6.4 9.7 0.00 0.00 0.00 59 1032.8
20260906082646 13 201 4.8 6.4 0.00 0.00 0.00 58 1032.9
20260906082141 14 206 6.4 6.4 0.00 0.00 0.00 58 1032.9
20260906081637 13 204 6.4 6.4 0.00 0.00 0.00 60 1032.9
20260906081132 13 221 6.4 6.4 0.00 0.00 0.00 60 1032.9
20260906080629 13 234 6.4 6.4 0.00 0.00 0.00 63 1033.1
20260906080124 14 209 4.8 6.4 0.00 0.00 0.00 60 1033.1
20260906075618 13 198 6.4 6.4 0.00 0.00 0.00 60 1033.3
20260906075113 13 211 6.4 9.7 0.00 0.00 0.00 61 1033.2
20260906074609 13 201 6.4 6.4 0.00 0.00 0.00 59 1033.2
20260906074108 13 218 6.4 6.4 0.00 0.00 0.00 62 1033.1
20260906073608 13 209 4.8 6.4 0.00 0.00 0.00 64 1033.1
20260906073104 13 214 3.2 4.8 0.00 0.00 0.00 63 1033.1
20260906072558 13 218 3.2 4.8 0.00 0.00 0.00 61 1033.3
20260906072054 13 206 6.4 6.4 0.00 0.00 0.00 60 1033.2
20260906071550 13 211 4.8 6.4 0.00 0.00 0.00 61 1033.2
20260906071040 14 218 4.8 6.4 0.00 0.00 0.00 60 1033.2
20260906070536 13 213 4.8 6.4 0.00 0.00 0.00 64 1033.2
20260906070032 13 205 4.8 6.4 0.00 0.00 0.00 65 1033.1
20260906065531 13 205 6.4 6.4 0.00 0.00 0.00 66 1033.2
20260906065027 13 207 4.8 4.8 0.00 0.00 0.00 66 1033.1
20260906064522 13 212 4.8 4.8 0.00 0.00 0.00 64 1033.1
20260906064017 13 201 4.8 4.8 0.00 0.00 0.00 67 1033.5
20260906063513 12 207 4.8 4.8 0.00 0.00 0.00 69 1033.6
20260906063008 12 210 6.4 6.4 0.00 0.00 0.00 70 1033.2
20260906062503 12 200 4.8 6.4 0.00 0.00 0.00 70 1033.7
20260906061957 11 209 4.8 6.4 0.00 0.00 0.00 75 1033.5
20260906061454 11 202 4.8 6.4 0.00 0.00 0.00 78 1033.3
20260906060953 11 207 6.4 6.4 0.00 0.00 0.00 79 1033.7
20260906060450 11 214 4.8 4.8 0.00 0.00 0.00 82 1033.7
20260906055946 10 212 4.8 4.8 0.00 0.05 0.05 82 1033.7
20260906055442 10 209 4.8 4.8 0.00 0.05 0.05 84 1033.5
20260906054937 10 203 4.8 4.8 0.00 0.05 0.05 84 1033.7
20260906054432 10 204 4.8 4.8 0.00 0.05 0.05 85 1033.7
20260906053928 10 206 4.8 4.8 0.00 0.05 0.05 86 1033.9
20260906053424 10 216 3.2 4.8 0.00 0.05 0.05 87 1034.1
20260906052919 11 220 3.2 3.2 0.00 0.05 0.05 88 1034.1
20260906052415 10 209 4.8 4.8 0.00 0.05 0.05 88 1034.0
20260906051912 11 203 4.8 4.8 0.00 0.05 0.05 89 1033.9
20260906051412 11 213 4.8 6.4 0.00 0.05 0.05 90 1034.4
20260906050908 11 215 3.2 4.8 0.00 0.05 0.05 91 1034.1
20260906050403 11 217 3.2 4.8 0.00 0.05 0.05 92 1034.1
20260906045902 11 233 3.2 4.8 0.00 0.05 0.05 93 1033.9
20260906045400 11 238 1.6 3.2 0.00 0.05 0.05 92 1034.4
20260906044857 11 218 4.8 4.8 0.00 0.05 0.05 89 1034.1
20260906044357 12 222 3.2 4.8 0.13 0.05 0.05 86 1034.3
20260906043853 13 251 4.8 11.3 0.13 0.05 0.05 79 1034.3
20260906043349 15 193 6.4 12.9 0.00 0.03 0.03 69 1034.4
20260906042844 14 234 8.0 14.5 0.00 0.03 0.03 66 1034.3
20260906042342 13 169 6.4 17.7 0.00 0.03 0.03 67 1034.3
20260906041838 13 187 12.9 20.9 0.18 0.03 0.03 73 1034.0
20260906041334 13 235 9.7 12.9 0.18 0.03 0.03 77 1034.4
20260906040834 15 205 14.5 16.1 0.00 0.00 0.00 71 1033.9
20260906040329 16 211 8.0 16.1 0.00 0.00 0.00 54 1034.1
20260906035824 16 220 3.2 12.9 0.00 0.00 0.00 54 1033.7
20260906035319 17 248 6.4 14.5 0.00 0.00 0.00 52 1033.6
20260906034815 17 218 6.4 14.5 0.00 0.00 0.00 49 1033.6
20260906034314 17 262 9.7 14.5 0.00 0.00 0.00 49 1033.7
20260906033811 17 228 4.8 9.7 0.00 0.00 0.00 47 1033.3
20260906033309 17 251 0.0 0.0 0.00 0.00 0.00 48 1033.6
20260906032806 17 248 0.0 0.0 0.00 0.00 0.00 48 1033.7
20260906032305 17 218 3.2 4.8 0.00 0.00 0.00 48 1033.5
20260906031757 16 223 3.2 3.2 0.00 0.00 0.00 50 1033.6
20260906031253 16 216 4.8 4.8 0.00 0.00 0.00 50 1033.5
20260906030752 15 219 3.2 3.2 0.00 0.00 0.00 59 1033.3
20260906030248 16 236 1.6 3.2 0.00 0.00 0.00 55 1033.2
20260906025747 17 238 1.6 4.8 0.00 0.00 0.00 54 1032.9
20260906025241 17 218 4.8 6.4 0.00 0.00 0.00 47 1033.2
20260906024740 17 237 3.2 4.8 0.00 0.00 0.00 49 1033.2
20260906024239 17 234 6.4 6.4 0.00 0.00 0.00 49 1033.1
20260906023735 16 212 6.4 6.4 0.00 0.00 0.00 49 1033.1
20260906023230 16 218 3.2 3.2 0.00 0.00 0.00 51 1032.9
20260906022726 15 194 4.8 4.8 0.00 0.00 0.00 52 1032.8
20260906022216 16 248 1.6 1.6 0.00 0.00 0.00 52 1032.8
20260906021711 16 245 1.6 3.2 0.00 0.00 0.00 51 1032.5
20260906021209 16 236 1.6 3.2 0.00 0.00 0.00 51 1032.4
20260906020705 16 235 3.2 3.2 0.00 0.00 0.00 49 1032.7
20260906020159 17 267 0.0 1.6 0.00 0.00 0.00 46 1032.7
20260906015653 17 248 0.0 0.0 0.00 0.00 0.00 46 1032.8
20260906015152 17 280 1.6 3.2 0.00 0.00 0.00 47 1032.7
20260906014646 17 238 1.6 3.2 0.00 0.00 0.00 48 1032.8
20260906014142 17 272 1.6 3.2 0.00 0.00 0.00 46 1032.8
20260906013639 18 246 3.2 3.2 0.00 0.00 0.00 46 1032.7
20260906013134 18 263 1.6 4.8 0.00 0.00 0.00 46 1032.5
20260906012634 18 298 3.2 11.3 0.00 0.00 0.00 45 1032.5
20260906012128 18 303 1.6 4.8 0.00 0.00 0.00 45 1032.7
20260906011624 18 263 3.2 4.8 0.00 0.00 0.00 44 1032.9
20260906011119 18 317 4.8 12.9 0.00 0.00 0.00 43 1032.9
20260906010614 18 290 4.8 4.8 0.00 0.00 0.00 43 1032.5
20260906010110 19 279 4.8 9.7 0.00 0.00 0.00 42 1032.8
20260906005609 20 254 1.6 9.7 0.00 0.00 0.00 42 1032.7
20260906005108 20 288 1.6 3.2 0.00 0.00 0.00 41 1032.5
20260906004603 20 265 0.0 3.2 0.00 0.00 0.00 40 1032.4
20260906004057 20 354 1.6 6.4 0.00 0.00 0.00 41 1032.7
20260906003553 20 256 3.2 4.8 0.00 0.00 0.00 39 1032.7
20260906003048 20 290 1.6 4.8 0.00 0.00 0.00 39 1032.5
20260906002543 20 277 1.6 3.2 0.00 0.00 0.00 39 1032.4
20260906002037 20 265 0.0 0.0 0.00 0.00 0.00 39 1032.5
20260906001533 20 259 1.6 3.2 0.00 0.00 0.00 38 1032.7
20260906001027 20 250 0.0 3.2 0.00 0.00 0.00 39 1032.5
20260906000523 21 247 0.0 0.0 0.00 0.00 0.00 40 1032.4
20260906000018 20 265 0.0 3.2 0.00 0.00 0.00 39 1032.7
20260905235511 21 218 0.0 1.6 0.00 0.00 0.00 38 1032.4
20260905235006 21 328 6.4 9.7 0.00 0.00 0.00 38 1032.5
20260905234502 21 327 4.8 4.8 0.00 0.00 0.00 37 1032.5
20260905233956 22 271 4.8 11.3 0.00 0.00 0.00 37 1032.4
20260905233452 22 327 6.4 6.4 0.00 0.00 0.00 37 1032.1
20260905232950 22 358 6.4 9.7 0.00 0.00 0.00 36 1032.5
20260905232447 22 285 3.2 6.4 0.00 0.00 0.00 37 1032.1
20260905231942 22 358 1.6 11.3 0.00 0.00 0.00 36 1032.4
20260905231438 22 282 0.0 1.6 0.00 0.00 0.00 35 1032.4
20260905230934 22 238 6.4 9.7 0.00 0.00 0.00 36 1032.3
20260905230427 22 320 0.0 12.9 0.00 0.00 0.00 38 1032.4
20260905225925 22 348 6.4 12.9 0.00 0.00 0.00 36 1032.3
20260905225420 22 19 6.4 12.9 0.00 0.00 0.00 36 1032.1
20260905224915 23 46 4.8 11.3 0.00 0.00 0.00 35 1032.3
20260905224411 22 56 9.7 17.7 0.00 0.00 0.00 35 1032.4
20260905223905 23 117 4.8 9.7 0.00 0.00 0.00 34 1032.3
20260905223403 22 18 12.9 17.7 0.00 0.00 0.00 35 1032.3
20260905222903 22 27 8.0 11.3 0.00 0.00 0.00 35 1032.4
20260905222402 22 274 0.0 4.8 0.00 0.00 0.00 35 1032.4
20260905221858 22 262 0.0 6.4 0.00 0.00 0.00 35 1032.3
20260905221355 23 70 1.6 6.4 0.00 0.00 0.00 34 1032.4
20260905220850 22 217 1.6 3.2 0.00 0.00 0.00 36 1032.4
20260905220347 22 320 1.6 4.8 0.00 0.00 0.00 35 1032.4
20260905215846 22 343 6.4 11.3 0.00 0.00 0.00 36 1032.5
20260905215341 22 4 6.4 12.9 0.00 0.00 0.00 36 1032.5
20260905214832 22 358 8.0 14.5 0.00 0.00 0.00 36 1032.5
20260905214327 22 359 4.8 6.4 0.00 0.00 0.00 36 1032.8
20260905213822 22 275 1.6 4.8 0.00 0.00 0.00 35 1032.5
20260905213318 22 299 3.2 9.7 0.00 0.00 0.00 36 1032.5
20260905212813 22 261 3.2 4.8 0.00 0.00 0.00 36 1032.8
20260905212312 22 223 1.6 16.1 0.00 0.00 0.00 35 1032.8
20260905211807 22 104 4.8 11.3 0.00 0.00 0.00 35 1032.8
20260905211302 22 9 3.2 11.3 0.00 0.00 0.00 36 1032.9
20260905210759 21 317 6.4 14.5 0.00 0.00 0.00 37 1033.1
20260905210258 21 17 6.4 11.3 0.00 0.00 0.00 37 1033.3
20260905205757 21 55 12.9 14.5 0.00 0.00 0.00 37 1033.2
20260905205252 20 349 4.8 9.7 0.00 0.00 0.00 37 1033.6
20260905204751 21 351 3.2 9.7 0.00 0.00 0.00 38 1033.2
20260905204248 21 273 0.0 9.7 0.00 0.00 0.00 38 1033.2
20260905203747 21 280 3.2 9.7 0.00 0.00 0.00 37 1033.2
20260905203242 21 318 9.7 12.9 0.00 0.00 0.00 36 1033.2
20260905202738 22 15 9.7 12.9 0.00 0.00 0.00 38 1033.3
20260905202238 21 16 3.2 11.3 0.00 0.00 0.00 38 1033.2
20260905201733 21 99 14.5 17.7 0.00 0.00 0.00 36 1033.5
20260905201228 20 210 3.2 3.2 0.00 0.00 0.00 40 1033.2
20260905200723 20 5 3.2 16.1 0.00 0.00 0.00 39 1033.2
20260905200219 20 345 6.4 16.1 0.00 0.00 0.00 39 1033.2
20260905195717 20 300 8.0 14.5 0.00 0.00 0.00 39 1033.3
20260905195213 20 292 11.3 14.5 0.00 0.00 0.00 39 1033.3
20260905194708 20 37 11.3 12.9 0.00 0.00 0.00 39 1033.5
20260905194207 21 272 1.6 9.7 0.00 0.00 0.00 39 1033.5
20260905193701 21 286 6.4 11.3 0.00 0.00 0.00 38 1033.3
20260905193156 21 84 6.4 16.1 0.00 0.00 0.00 37 1033.6
20260905192652 23 119 3.2 11.3 0.00 0.00 0.00 36 1033.3
20260905192149 22 107 4.8 11.3 0.00 0.00 0.00 35 1033.3
20260905191648 21 323 1.6 4.8 0.00 0.00 0.00 37 1033.5
20260905191146 22 212 1.6 6.4 0.00 0.00 0.00 37 1033.6
20260905190644 21 10 9.7 12.9 0.00 0.00 0.00 39 1033.6
20260905190144 21 316 4.8 4.8 0.00 0.00 0.00 37 1033.5
20260905185637 22 25 17.7 20.9 0.00 0.00 0.00 37 1033.5
20260905185132 22 359 6.4 6.4 0.00 0.00 0.00 36 1033.6
20260905184632 22 84 3.2 17.7 0.00 0.00 0.00 34 1033.6
20260905184131 22 71 8.0 14.5 0.00 0.00 0.00 34 1033.5
20260905183630 21 0 0.0 11.3 0.00 0.00 0.00 37 1033.6
20260905183126 21 307 4.8 12.9 0.00 0.00 0.00 37 1033.7
20260905182625 21 304 3.2 12.9 0.00 0.00 0.00 36 1033.5
20260905182119 22 115 4.8 6.4 0.00 0.00 0.00 35 1033.7
20260905181614 22 315 4.8 6.4 0.00 0.00 0.00 35 1033.6
20260905181113 23 275 3.2 4.8 0.00 0.00 0.00 35 1033.6
20260905180609 22 120 12.9 17.7 0.00 0.00 0.00 36 1033.7
20260905180104 22 42 6.4 11.3 0.00 0.00 0.00 37 1033.7
20260905175603 22 162 8.0 14.5 0.00 0.00 0.00 36 1033.9
20260905175058 23 51 12.9 17.7 0.00 0.00 0.00 34 1033.6
20260905174554 22 96 12.9 16.1 0.00 0.00 0.00 36 1033.9
20260905174049 22 297 6.4 16.1 0.00 0.00 0.00 36 1033.9
20260905173546 23 90 9.7 12.9 0.00 0.00 0.00 36 1033.9
20260905173041 22 279 3.2 9.7 0.00 0.00 0.00 35 1033.7
20260905172539 23 71 3.2 11.3 0.00 0.00 0.00 35 1033.9
20260905172035 23 150 12.9 14.5 0.00 0.00 0.00 34 1033.9
20260905171531 23 314 6.4 11.3 0.00 0.00 0.00 34 1033.6
20260905171027 23 252 0.0 1.6 0.00 0.00 0.00 33 1033.9
20260905170523 22 282 3.2 6.4 0.00 0.00 0.00 35 1033.6
20260905170018 21 8 3.2 6.4 0.00 0.00 0.00 36 1033.6
20260905165513 21 305 3.2 3.2 0.00 0.00 0.00 35 1033.9
20260905165008 20 271 3.2 6.4 0.00 0.00 0.00 36 1033.6
20260905164502 20 265 1.6 4.8 0.00 0.00 0.00 36 1034.0
20260905163956 20 270 3.2 6.4 0.00 0.00 0.00 37 1033.7
20260905163453 21 338 1.6 6.4 0.00 0.00 0.00 38 1033.5
20260905162949 21 276 3.2 6.4 0.00 0.00 0.00 36 1033.9
20260905162444 22 88 8.0 16.1 0.00 0.00 0.00 35 1033.7
20260905161939 21 7 6.4 11.3 0.00 0.00 0.00 36 1033.6
20260905161438 21 271 4.8 12.9 0.00 0.00 0.00 37 1033.6
20260905160936 21 14 3.2 11.3 0.00 0.00 0.00 36 1033.5
20260905160430 21 299 3.2 6.4 0.00 0.00 0.00 36 1033.5
20260905155930 21 293 6.4 11.3 0.00 0.00 0.00 36 1033.5
20260905155425 21 305 4.8 6.4 0.00 0.00 0.00 35 1033.6
20260905154923 21 247 3.2 4.8 0.00 0.00 0.00 36 1033.6
20260905154419 21 294 4.8 6.4 0.00 0.00 0.00 35 1033.5
20260905153915 21 234 3.2 6.4 0.00 0.00 0.00 34 1033.5
20260905153411 21 303 3.2 12.9 0.00 0.00 0.00 37 1033.5
20260905152910 20 203 3.2 6.4 0.00 0.00 0.00 37 1033.5
20260905152409 20 269 8.0 11.3 0.00 0.00 0.00 37 1033.5
20260905151905 20 291 1.6 11.3 0.00 0.00 0.00 38 1033.3
20260905151400 20 234 6.4 9.7 0.00 0.00 0.00 38 1033.5
20260905150855 19 251 3.2 11.3 0.00 0.00 0.00 40 1033.5
20260905150354 20 340 6.4 12.9 0.00 0.00 0.00 39 1033.3
20260905145851 20 275 1.6 6.4 0.00 0.00 0.00 39 1033.2
20260905145346 19 325 3.2 9.7 0.00 0.00 0.00 40 1033.5
20260905144845 19 303 6.4 11.3 0.00 0.00 0.00 40 1033.5
20260905144341 18 269 9.7 14.5 0.00 0.00 0.00 40 1033.5
20260905143839 18 233 11.3 16.1 0.00 0.00 0.00 41 1033.5
20260905143328 19 256 0.0 3.2 0.00 0.00 0.00 40 1033.3
20260905142827 18 251 0.0 4.8 0.00 0.00 0.00 41 1033.5
20260905142321 18 291 3.2 3.2 0.00 0.00 0.00 41 1033.3
20260905141818 18 247 3.2 6.4 0.00 0.00 0.00 42 1033.5
20260905141313 18 246 6.4 6.4 0.00 0.00 0.00 42 1033.3
20260905140808 17 217 8.0 11.3 0.00 0.00 0.00 42 1033.6
20260905140302 17 173 3.2 6.4 0.00 0.00 0.00 43 1033.2
20260905135801 17 304 11.3 16.1 0.00 0.00 0.00 43 1033.1
20260905135258 17 296 9.7 14.5 0.00 0.00 0.00 43 1033.1
20260905134757 17 236 6.4 9.7 0.00 0.00 0.00 43 1032.9
20260905134251 17 218 9.7 12.9 0.00 0.00 0.00 44 1032.8
20260905133745 16 244 3.2 12.9 0.00 0.00 0.00 44 1032.9
20260905133241 16 203 4.8 11.3 0.00 0.00 0.00 45 1033.1
20260905132740 16 240 1.6 9.7 0.00 0.00 0.00 45 1032.8
20260905132236 16 252 3.2 16.1 0.00 0.00 0.00 44 1032.7
20260905131730 16 240 1.6 4.8 0.00 0.00 0.00 46 1032.8
20260905131225 15 223 6.4 11.3 0.00 0.00 0.00 44 1032.9
20260905130720 15 172 3.2 6.4 0.00 0.00 0.00 46 1032.7
20260905130219 13 225 3.2 3.2 0.00 0.00 0.00 52 1032.8
20260905125715 13 204 4.8 4.8 0.00 0.00 0.00 51 1032.7
20260905125210 13 200 4.8 4.8 0.00 0.00 0.00 52 1032.8
20260905124706 13 202 4.8 4.8 0.00 0.00 0.00 50 1032.5
20260905124202 15 196 3.2 6.4 0.00 0.00 0.00 47 1032.5
20260905123656 15 213 6.4 11.3 0.00 0.00 0.00 46 1032.3
20260905123154 15 211 3.2 9.7 0.00 0.00 0.00 47 1032.3
20260905122653 15 222 4.8 4.8 0.00 0.00 0.00 49 1032.3
20260905122148 15 200 3.2 6.4 0.00 0.00 0.00 50 1032.3
20260905121643 13 211 4.8 9.7 0.00 0.00 0.00 50 1032.3
20260905121138 13 216 3.2 3.2 0.00 0.00 0.00 54 1032.3
20260905120637 13 208 6.4 6.4 0.00 0.00 0.00 51 1032.4
20260905120132 13 213 4.8 6.4 0.00 0.00 0.00 54 1032.3
20260905115632 13 213 4.8 4.8 0.00 0.00 0.00 54 1032.1
20260905115127 14 219 3.2 6.4 0.00 0.00 0.00 52 1032.0
20260905114627 15 213 4.8 6.4 0.00 0.00 0.00 50 1032.3
20260905114125 15 233 6.4 6.4 0.00 0.00 0.00 49 1032.3
20260905113620 13 228 4.8 4.8 0.00 0.00 0.00 53 1032.3
20260905113115 14 231 4.8 6.4 0.00 0.00 0.00 52 1032.3
20260905112610 13 210 4.8 6.4 0.00 0.00 0.00 54 1032.1
20260905112106 13 205 3.2 4.8 0.00 0.00 0.00 55 1032.3
20260905111606 13 210 6.4 6.4 0.00 0.00 0.00 54 1032.3
20260905111105 13 236 3.2 4.8 0.00 0.00 0.00 55 1032.4
20260905110604 13 208 4.8 6.4 0.00 0.00 0.00 55 1032.3
20260905110059 13 207 4.8 4.8 0.00 0.00 0.00 56 1032.3
20260905105554 13 206 6.4 6.4 0.00 0.00 0.00 55 1032.3
20260905105053 13 218 4.8 6.4 0.00 0.00 0.00 57 1032.4
20260905104549 13 206 4.8 4.8 0.00 0.00 0.00 57 1032.1
20260905104048 13 211 4.8 4.8 0.00 0.00 0.00 57 1032.0
20260905103545 13 203 6.4 6.4 0.00 0.00 0.00 56 1032.0
20260905103041 13 216 4.8 4.8 0.00 0.00 0.00 56 1032.3
20260905102536 13 207 4.8 4.8 0.00 0.00 0.00 57 1032.1
20260905102033 13 197 4.8 6.4 0.00 0.00 0.00 56 1032.1
20260905101531 13 201 4.8 6.4 0.00 0.00 0.00 58 1031.9